[[{"header":{"parameterUnit":"m.s-1","parameterCategory":1,"la1":30.2991,"la2":30.254,"lo1":-89.0895,"lo2":-89.0444,"dy":0.0017,"dx":0.0017,"nx":28,"ny":28,"refTime":"2025-05-20T09:00:00:Z","depth":0,"parameterNumber":2,"parameterNumberName":"U-component_of_WINDS"},"data":[0,0,0,0,0,0,0,0,0,0,0,0,0,0,0,0,0,0,0,0,0,0,0,0,0,0,0,0,0,0,0,0,0,0,0,0,0,0,0,0,0,0,0,0,0,0,0,0,0,0,0,0,0,0,0,0,0,0,-1.3989,-1.399,0,-1.4059,-1.4059,-1.406,-1.4075,-1.4075,-1.4074,-1.4074,-1.4147,-1.415,-1.4152,0,0,0,0,0,0,0,0,0,0,0,0,0,-1.3872,-1.3874,-1.3989,-1.399,-1.3991,-1.4058,-1.4059,-1.406,-1.4075,-1.4075,-1.4074,-1.4073,-1.4147,-1.415,-1.4152,0,0,0,0,0,0,0,0,0,0,0,0,0,-1.393,-1.3874,-1.3989,-1.4006,-1.4008,-1.4058,-1.4059,-1.4061,-1.4075,-1.4075,-1.4074,-1.4073,-1.4146,-1.4149,-1.4153,-1.4191,0,0,-1.4164,-1.4166,0,0,0,0,0,0,0,0,-1.3927,-1.3934,-1.4003,-1.4005,-1.4008,-1.4057,-1.4045,-1.4104,-1.4076,-1.405,-1.4074,-1.4073,-1.4118,-1.4124,-1.4139,-1.4195,-1.4198,-1.4164,-1.4167,-1.4168,-1.4169,0,0,0,0,0,0,0,-1.3923,-1.3932,-1.4017,-1.4004,-1.4007,-1.4011,-1.4019,-1.4057,-1.4088,-1.4052,-1.4053,-1.4061,-1.4119,-1.4135,-1.4141,-1.4199,-1.4164,-1.4168,-1.417,-1.4171,-1.4291,-1.4291,0,0,0,0,0,0,-1.3915,-1.3928,-1.4014,-1.4019,-1.3964,-1.4014,-1.4022,-1.4042,-1.4087,-1.4093,-1.4062,-1.4062,-1.4129,-1.4137,-1.4143,-1.4192,-1.4168,-1.4172,-1.4174,-1.429,-1.4291,-1.4292,0,0,0,0,0,0,-1.3913,-1.3923,-1.4011,-1.3974,-1.3985,-1.4017,-1.4039,-1.4044,-1.406,-1.4095,-1.4101,-1.4072,-1.4129,-1.4138,-1.4179,-1.4195,-1.4173,-1.4177,-1.4288,-1.429,-1.4291,-1.4288,0,0,0,0,0,0,-1.3909,-1.3922,-1.3936,-1.3974,-1.3987,-1.4045,-1.404,-1.4046,-1.4066,-1.4066,-1.4106,-1.4112,-1.4129,-1.4174,-1.4183,-1.4199,-1.418,-1.4287,-1.4289,-1.4291,-1.4287,-1.429,-1.4292,0,0,0,0,0,-1.3905,-1.3933,-1.3936,-1.3947,-1.4005,-1.4046,-1.4054,-1.4073,-1.4067,-1.4082,-1.4105,-1.4111,-1.4191,-1.4178,-1.4188,-1.4206,-1.4286,-1.4289,-1.4291,-1.4286,-1.4289,-1.4291,0,0,0,0,0,0,-1.3897,-1.3938,-1.3943,-1.3983,-1.4011,-1.4048,-1.4068,-1.4075,-1.4105,-1.4105,-1.4127,-1.4136,-1.4176,-1.4195,-1.4179,-1.4246,-1.4239,-1.4243,-1.4232,-1.4235,-1.4237,-1.4232,-1.4183,0,0,0,0,0,-1.3899,-1.3928,-1.3963,-1.3995,-1.4009,-1.4036,-1.4054,-1.4066,-1.4096,-1.4108,-1.4134,-1.4163,-1.4196,-1.4216,-1.4248,-1.429,-1.43,-1.4308,-1.431,-1.4311,-1.4315,-1.434,-1.4344,-1.4299,-1.4299,-1.4299,0,0,-1.3905,-1.3932,-1.3948,-1.3994,-1.4017,-1.4047,-1.4046,-1.4077,-1.41,-1.4113,-1.4153,-1.4173,-1.4208,-1.425,-1.427,-1.4267,-1.4329,-1.4314,-1.4315,-1.4318,-1.4342,-1.4347,-1.435,-1.43,-1.43,-1.43,0,0,-1.3932,-1.3954,-1.3984,-1.4007,-1.4041,-1.4059,-1.4066,-1.4103,-1.4116,-1.4157,-1.4167,-1.4195,-1.425,-1.4274,-1.4294,-1.433,-1.4337,-1.434,-1.4351,-1.4375,-1.4379,-1.4382,-1.4396,-1.44,-1.4344,-1.4344,-1.4344,0,-1.3936,-1.398,-1.3999,-1.403,-1.405,-1.4063,-1.4094,-1.4116,-1.4159,-1.4173,-1.4169,-1.4239,-1.4263,-1.4311,-1.432,-1.4335,-1.4345,-1.4336,-1.4377,-1.438,-1.4383,-1.4397,-1.4402,-1.4344,-1.4344,-1.4344,-1.4344,0,-1.3984,-1.4014,-1.4035,-1.4075,-1.4098,-1.4129,-1.4153,-1.4174,-1.4184,-1.4203,-1.4244,-1.4274,-1.4312,-1.4324,-1.4334,-1.4374,-1.4371,-1.4372,-1.4365,-1.4387,-1.44,-1.4406,-1.4344,-1.4344,-1.4344,-1.4344,0,0,-1.4007,-1.4057,-1.4064,-1.4083,-1.4122,-1.4147,-1.4179,-1.4215,-1.4233,-1.4263,-1.4291,-1.4337,-1.4338,-1.436,-1.4373,-1.4394,-1.4422,-1.4392,-1.4393,-1.4397,-1.4468,-1.4468,-1.4473,-1.4427,-1.4428,-1.4429,-1.4465,0,-1.4039,-1.4095,-1.4113,-1.4161,-1.419,-1.4202,-1.423,-1.4258,-1.4276,-1.4305,-1.4325,-1.4358,-1.4356,-1.437,-1.4391,-1.4414,-1.4437,-1.4412,-1.4454,-1.4455,-1.4445,-1.448,-1.448,-1.4513,-1.447,-1.4471,-1.4472,0,-1.4084,-1.4113,-1.4163,-1.4199,-1.4212,-1.4236,-1.4271,-1.4298,-1.433,-1.4342,-1.4367,-1.4379,-1.4414,-1.4405,-1.4454,-1.4436,-1.4455,-1.4469,-1.4471,-1.4476,-1.4465,-1.4486,-1.4524,-1.4529,-1.448,-1.4479,-1.4479,0,-1.4096,-1.4149,-1.4185,-1.4201,-1.4243,-1.4261,-1.4279,-1.431,-1.4331,-1.4362,-1.4376,-1.4411,-1.443,-1.4457,-1.4479,-1.447,-1.4526,-1.4519,-1.4538,-1.4538,-1.455,-1.4549,-1.4591,-1.4561,-1.4561,-1.4561,-1.456,0,-1.413,-1.4161,-1.4192,-1.4215,-1.4249,-1.427,-1.4304,-1.4324,-1.4351,-1.4379,-1.4392,-1.4418,-1.4444,-1.4474,-1.4491,-1.453,-1.4538,-1.455,-1.4554,-1.4549,-1.4547,-1.4561,-1.456,-1.4562,-1.4562,-1.4561,-1.4561,0,-1.4151,-1.4173,-1.4214,-1.425,-1.426,-1.4284,-1.4316,-1.4339,-1.4358,-1.4393,-1.4402,-1.4432,-1.4468,-1.4491,-1.4537,-1.4549,-1.4591,-1.4595,-1.458,-1.4582,-1.46,-1.4598,-1.4654,-1.4662,-1.4625,-1.4626,-1.4626,0,-1.4171,-1.4195,-1.4234,-1.4252,-1.4271,-1.4301,-1.4322,-1.4344,-1.4366,-1.4404,-1.4423,-1.4459,-1.4489,-1.4546,-1.4572,-1.4607,-1.4612,-1.4629,-1.4618,-1.4612,-1.4613,-1.4612,-1.4615,-1.4631,-1.4631,-1.4632,-1.4632,0,-1.4206,-1.4215,-1.4245,-1.4278,-1.4303,-1.433,-1.4358,-1.4373,-1.4399,-1.4423,-1.4459,-1.4483,-1.4529,-1.4565,-1.4603,-1.4624,-1.4633,-1.4635,-1.4642,-1.4637,-1.4628,-1.4634,-1.4585,-1.4634,-1.4634,-1.4634,-1.4634,-1.4633,-1.4228,-1.4249,-1.428,-1.4312,-1.4335,-1.4361,-1.4384,-1.4406,-1.4436,-1.4475,-1.4486,-1.4524,-1.4556,-1.4607,-1.4628,-1.4659,-1.4657,-1.4666,-1.4669,-1.4671,-1.4671,-1.4622,-1.4666,-1.4666,-1.4666,-1.4666,-1.4666,0,-1.4264,-1.4284,-1.4313,-1.4351,-1.4377,-1.4382,-1.4413,-1.4434,-1.4467,-1.4496,-1.4525,-1.4567,-1.4602,-1.4631,-1.4668,-1.4687,-1.4692,-1.4696,-1.4695,-1.47,-1.467,-1.4661,-1.4691,-1.4691,-1.4691,-1.4691,-1.4691,-1.4691,-1.4285,-1.4322,-1.4335,-1.4384,-1.4405,-1.4441,-1.4458,-1.4482,-1.4505,-1.4551,-1.458,-1.4598,-1.4627,-1.4666,-1.4699,-1.4707,-1.472,-1.4723,-1.4732,-1.4704,-1.4702,-1.4699,-1.4691,-1.4726,-1.4726,-1.4759,-1.4759,-1.476]},{"header":{"parameterUnit":"m.s-1","parameterCategory":1,"la1":30.2991,"la2":30.254,"lo1":-89.0895,"lo2":-89.0444,"dy":0.0017,"dx":0.0017,"nx":28,"ny":28,"refTime":"2025-05-20T09:00:00:Z","depth":0,"parameterNumber":3,"parameterNumberName":"V-component_of_WINDS"},"data":[0,0,0,0,0,0,0,0,0,0,0,0,0,0,0,0,0,0,0,0,0,0,0,0,0,0,0,0,0,0,0,0,0,0,0,0,0,0,0,0,0,0,0,0,0,0,0,0,0,0,0,0,0,0,0,0,0,0,5.4739,5.474,0,5.4826,5.4827,5.4828,5.4782,5.478,5.4777,5.4775,5.486,5.4864,5.4869,0,0,0,0,0,0,0,0,0,0,0,0,0,5.4531,5.4535,5.4739,5.474,5.4741,5.4826,5.4827,5.4828,5.4783,5.478,5.4777,5.4774,5.4859,5.4864,5.4869,0,0,0,0,0,0,0,0,0,0,0,0,0,5.462,5.4536,5.4739,5.4729,5.4729,5.4825,5.4827,5.4828,5.4783,5.478,5.4776,5.4773,5.4857,5.4863,5.487,5.498,0,0,5.489,5.4893,0,0,0,0,0,0,0,0,5.4615,5.4627,5.4729,5.473,5.473,5.479,5.4784,5.4879,5.4784,5.4762,5.4775,5.4771,5.4839,5.4847,5.4871,5.4984,5.4988,5.4891,5.4895,5.4898,5.4899,0,0,0,0,0,0,0,5.4609,5.4623,5.4773,5.4731,5.4731,5.4719,5.4728,5.4802,5.4819,5.4764,5.4761,5.4772,5.4839,5.4865,5.4872,5.4989,5.4891,5.4896,5.4901,5.4903,5.5196,5.52,0,0,0,0,0,0,5.4604,5.4619,5.4771,5.4776,5.4663,5.4725,5.4735,5.4774,5.4818,5.4822,5.4775,5.477,5.4855,5.4865,5.4875,5.5007,5.4898,5.4904,5.4908,5.5192,5.5197,5.5201,0,0,0,0,0,0,5.4599,5.4618,5.4767,5.4697,5.4715,5.4733,5.4777,5.4778,5.4803,5.4826,5.4829,5.4798,5.4853,5.4866,5.4954,5.5009,5.4907,5.4913,5.5188,5.5194,5.5199,5.5271,0,0,0,0,0,0,5.4594,5.4616,5.4659,5.4698,5.4719,5.4846,5.478,5.4782,5.4815,5.4809,5.4849,5.4852,5.4851,5.4945,5.4961,5.5016,5.4918,5.5183,5.519,5.5197,5.5263,5.5278,5.529,0,0,0,0,0,5.4586,5.4675,5.4662,5.468,5.4773,5.485,5.4861,5.4859,5.482,5.4863,5.4877,5.4851,5.5001,5.4954,5.4972,5.503,5.518,5.5188,5.5197,5.5257,5.5275,5.529,0,0,0,0,0,0,5.4641,5.468,5.4666,5.477,5.4807,5.4842,5.4895,5.4878,5.4926,5.4918,5.4911,5.4921,5.5013,5.503,5.4978,5.5139,5.5084,5.5096,5.5124,5.5141,5.5154,5.5148,5.4923,0,0,0,0,0,5.4666,5.4726,5.4756,5.4845,5.4865,5.4877,5.491,5.4906,5.4943,5.4958,5.4979,5.5016,5.507,5.5107,5.5159,5.5266,5.5273,5.5315,5.5328,5.5339,5.535,5.5407,5.5425,5.5229,5.5229,5.5229,0,0,5.4717,5.4745,5.4784,5.4857,5.4885,5.4946,5.4891,5.4958,5.5003,5.4968,5.5053,5.507,5.511,5.5208,5.5252,5.5225,5.5406,5.535,5.5359,5.5363,5.5417,5.5436,5.5452,5.5235,5.5234,5.5233,0,0,5.484,5.4869,5.4946,5.4975,5.5019,5.5027,5.5045,5.5083,5.5093,5.5179,5.5154,5.5206,5.5302,5.5331,5.5359,5.5494,5.5471,5.5511,5.5581,5.5637,5.5652,5.5666,5.5713,5.5731,5.5522,5.5522,5.5522,0,5.4898,5.499,5.4987,5.5057,5.509,5.5062,5.5139,5.5168,5.5226,5.5248,5.5218,5.5337,5.5362,5.5466,5.5499,5.5523,5.5542,5.5506,5.5651,5.5664,5.5677,5.5722,5.574,5.5526,5.5526,5.5525,5.5525,0,5.5058,5.5122,5.5179,5.5237,5.5276,5.5349,5.5356,5.5396,5.5388,5.5398,5.5485,5.5515,5.5572,5.5596,5.5589,5.57,5.5682,5.5651,5.5596,5.57,5.5742,5.576,5.5533,5.5531,5.553,5.5529,0,0,5.5218,5.5274,5.5295,5.5321,5.5367,5.5416,5.5487,5.5544,5.5578,5.5619,5.5678,5.5759,5.5731,5.5763,5.5758,5.5807,5.5911,5.577,5.5771,5.5795,5.6034,5.6056,5.6076,5.5897,5.59,5.5903,5.6031,0,5.5344,5.547,5.547,5.5586,5.5645,5.562,5.5681,5.5716,5.5728,5.5778,5.5791,5.5848,5.5808,5.5826,5.5874,5.5888,5.5959,5.5879,5.595,5.5953,5.594,5.6098,5.6122,5.6241,5.6047,5.605,5.6052,0,5.5508,5.5556,5.5678,5.5715,5.574,5.5796,5.5848,5.5897,5.5935,5.594,5.5975,5.5963,5.6034,5.5978,5.6075,5.6021,5.605,5.6061,5.6066,5.6071,5.6008,5.6107,5.6279,5.6297,5.6078,5.6076,5.6074,0,5.5612,5.5706,5.5791,5.5814,5.586,5.59,5.592,5.5955,5.5989,5.6035,5.6057,5.6109,5.6138,5.6178,5.618,5.6139,5.6278,5.6222,5.6283,5.6283,5.6312,5.631,5.649,5.6333,5.6333,5.6332,5.6332,0,5.5752,5.5828,5.5838,5.5891,5.5974,5.5972,5.6055,5.6071,5.6103,5.6157,5.6138,5.6189,5.6189,5.624,5.6242,5.6322,5.6335,5.634,5.634,5.6342,5.6341,5.636,5.6351,5.6337,5.6336,5.6335,5.6334,0,5.5882,5.5892,5.5983,5.6019,5.603,5.609,5.612,5.6169,5.618,5.6248,5.6264,5.628,5.634,5.6346,5.6415,5.6416,5.6513,5.6503,5.65,5.6498,5.6559,5.6553,5.6756,5.6783,5.6609,5.6611,5.6612,0,5.597,5.6028,5.6071,5.6106,5.6129,5.6187,5.6222,5.6222,5.6259,5.6307,5.635,5.6409,5.6455,5.6552,5.6568,5.6621,5.6612,5.668,5.662,5.662,5.6612,5.6609,5.6614,5.6691,5.6693,5.6695,5.6696,0,5.6126,5.6129,5.6181,5.6235,5.6277,5.6319,5.6359,5.6389,5.6394,5.6436,5.6498,5.6534,5.6605,5.6663,5.6714,5.6734,5.6716,5.6715,5.6732,5.6734,5.6729,5.6732,5.6531,5.671,5.6709,5.6708,5.6707,5.6706,5.6238,5.6287,5.6325,5.6383,5.6413,5.6451,5.6499,5.6515,5.6567,5.6625,5.6622,5.669,5.6726,5.6794,5.6818,5.687,5.6847,5.6871,5.6877,5.6883,5.6889,5.6722,5.6879,5.6879,5.6878,5.6878,5.6878,0,5.6392,5.6415,5.6469,5.6525,5.657,5.6551,5.6593,5.6632,5.6692,5.6728,5.6774,5.6845,5.6901,5.6922,5.6976,5.7014,5.7007,5.7028,5.7025,5.7029,5.6907,5.6886,5.7033,5.7033,5.7033,5.7033,5.7033,5.7033,5.6477,5.656,5.6567,5.6664,5.6686,5.6753,5.6779,5.6813,5.6841,5.6921,5.6968,5.6982,5.7012,5.7068,5.7118,5.7123,5.7143,5.7168,5.7169,5.7054,5.7038,5.7023,5.7004,5.7172,5.7173,5.7287,5.7288,5.7289]}]]